Tracking 23581 objects as of 27-Jul-2021
HD Live streaming from Space Station
objects crossing your sky now

COSMOS 2491 DEB

Track COSMOS 2491 DEB now!
10-day predictions


NORAD ID: 45109
Int'l Code: 2013-076Y
Perigee: 1,481.1 km
Apogee: 1,701.2 km
Inclination: 82.4 °
Period: 117.8 minutes
Semi major axis: 7962 km
RCS: Unknown
Launch date: December 25, 2013
Source: Commonwealth of Independent States (former USSR) (CIS)
Launch site: PLESETSK MISSILE AND SPACE COMPLEX (PKMTR)

Note: This is SATELLITE DEBRIS
aabbcc
Your satellite tracking list
Your tracking list is empty




NASA's NSSDC Master Catalog

Two Line Element Set (TLE):
1 45109U 13076Y   20060.04783337 -.00001757 +00000-0 -16171-1 0  9998
2 45109 082.4270 164.7354 0138206 179.2211 180.9097 12.21968326005657
Source of the keplerian elements: AFSPC